sat.trackr.live / text

‹ back to catalog

HUBBLE 7

NORAD 64592 · 2025-135BS

PAYLOAD ACTIVE UNKNOWN

§ Identity

Operator
Country
US
Launch date
2025-06-23
Launch site
AFWTR
Launch vehicle
Mass (kg)
RCS (m²)

External: N2YO · Heavens-Above · Gunter

§ Orbital elements

Epoch: 2026-09-21T21:19:47.523936Z

Period
96.40 min
Inclination
97.7831°
Eccentricity
0.0003607
Mean motion
14.93743080 rev/d
Perigee alt
583.8 km
Apogee alt
588.8 km
Semi-major
6,964.4 km
B*
8.8120e-5
RAAN
18.5822°
Arg perigee
47.1103°
Mean anomaly
313.0419°
Rev number
6,834

§ Raw data

HUBBLE 71 64592U 25135BS  26264.88874449  .00000876  00000+0  88120-4 0  99972 64592  97.7831  18.5822 0003607  47.1103 313.0419 14.93743080 68342

JSON: /api/v1/satellites/64592 · /tle

For live sub-satellite position, see the globe view (requires WebGL).

§ Visibility from observer

Set your observer location to see the next 7 days of passes ≥ 10°. The values pass through the URL so the page stays shareable.

No JS? Fill the form by hand. The geolocation button needs JavaScript.

§ Radio — SatNOGS DB

ModeDescriptionDownlinkUplink
FM Mode S - Transmitter 2.201 GHz
GMSK Mode U - GMSK4k8 401.100 MHz
FM Mode U - Transmitter 2 402.790 MHz

3 transmitters · refreshed weekly from db.satnogs.org